Location: Newark
(49.8348°N, 24.0280°E)
Time: 20:46:04
(UTC+00:00)

Explorer 7 - Pass Details

Date: 27 January 2020
Orbit: 485 x 679 km, 50.3° (Epoch: 22 February)

Event Time Altitude Azimuth Distance (km) Brightness Sun altitude
Rises 19:28:44 0° 202° (SSW) 2,592 - -41.2°
Reaches altitude 10° 19:31:32 10° 181° (S) 1,688 - -41.7°
Maximum altitude 19:33:59 17° 140° (SE) 1,321 - -42.0°
Drops below altitude 10° 19:36:24 10° 100° (E) 1,670 - -42.4°
Sets 19:39:09 0° 79° (E) 2,551 - -42.8°
